Location: Karlovy Vary
(50.2170°N, 12.9000°E)
Time: 23:45:15
(UTC+01:00)

ISS - Pass Details

Date: 06 October 2020
Orbit: 417 x 420 km, 51.6° (Epoch: 30 October)

Event Time Altitude Azimuth Distance (km) Brightness Sun altitude
Rises 20:21:36 0° 278° (W) 2,368 1.8 -17.8°
Reaches altitude 10° 20:25:31 10° 232° (SW) 1,498 -0.5 -18.4°
Maximum altitude 20:25:55 10° 225° (SW) 1,487 -0.6 -18.5°
Drops below altitude 10° 20:26:20 10° 218° (SW) 1,497 -0.7 -18.5°
Enters shadow 20:28:31 - 187° (S) 1,847 -0.6 -18.9°
